CAPE
0 0 0 0 0 0 0 0 0 0 0 0 0 0 0 0 0 0 0 37 674 1241 1636 1040 904 833 734 682 705 808 1063 1254 1174 1108 1060 969 927 967 1101 1163 1157 1260 1469 1605 1450 1043 903 662 487
0 0 0 0 0 0 0 0 0 0 0 0 0 0 0 0 0 0 0 185 917 1202 2029 1581 1027 955 787 663 717 884 1048 1170 1226 1232 1294 1177 1133 1152 1155 1096 1093 1241 1355 1388 1224 1057 855 507 595
0 0 0 0 0 0 0 0 0 0 0 0 0 0 0 0 0 0 0 342 1106 1465 2163 1809 1021 1015 803 660 719 954 1223 1227 1277 1384 1470 1449 1360 1250 1081 1037 1147 1150 1267 1193 974 911 728 652 615
0 0 0 0 0 0 0 0 0 0 0 0 0 0 0 0 0 0 0 467 1631 1370 2251 1670 1357 1026 933 751 737 975 1206 1316 1421 1579 1717 1639 1383 1157 1141 1200 1208 1163 1270 1156 1139 864 758 685 619
0 0 0 0 0 0 0 0 0 0 0 0 0 0 0 0 0 0 0 435 1486 2370 2229 1774 1502 1183 1074 926 845 927 1136 1300 1508 1681 1764 1669 1416 1203 1224 1155 1162 1031 1040 1001 1140 770 684 652 620
0 0 0 0 0 0 0 0 0 0 0 0 0 0 0 0 0 0 0 486 1270 2018 2924 2243 1717 1401 1262 1155 1027 998 1074 1216 1417 1661 1701 1562 1410 1340 1200 1136 1173 1177 1122 1135 985 768 706 661 639
0 0 0 0 0 0 0 0 0 0 0 0 0 0 0 0 0 0 0 334 998 1935 2454 2853 2248 1639 1459 1368 1223 1155 1077 1101 1299 1528 1665 1599 1504 1407 1289 1191 1156 1163 1136 1117 811 710 672 599 585
0 0 0 0 0 0 0 0 0 0 0 0 0 0 0 0 0 0 0 0 369 1351 2119 2476 2720 2192 1947 1649 1392 1304 1197 1061 1172 1404 1607 1619 1519 1403 1367 1300 1208 1198 1104 1020 817 666 619 558 486
0 0 0 0 0 0 0 0 0 0 0 0 0 0 0 0 0 0 0 0 0 0 1433 2069 2352 2638 2506 2401 1895 1288 1261 1137 1124 1237 1395 1437 1602 1511 1405 1257 1293 1118 1017 965 847 628 566 443 305
0 0 0 0 0 0 0 0 0 0 0 0 0 0 0 0 0 0 0 0 0 0 0 1467 1983 2051 2234 2183 2235 1818 1549 1285 1193 1433 1517 1435 1533 1664 1425 1288 939 996 936 887 740 574 464 308 277
0 0 0 0 0 0 0 0 0 0 0 0 0 0 0 0 0 0 0 0 0 0 0 0 376 1794 1928 1894 1666 1870 2036 1791 1722 1725 1862 1691 1647 1627 1255 1138 904 891 727 779 559 439 354 303 693
0 0 0 0 0 0 0 0 0 0 0 0 0 0 0 0 0 0 0 0 0 0 0 0 0 0 1533 1774 1608 1595 1494 1761 1839 1835 1598 2019 1718 1489 1353 1125 1217 1026 869 767 643 465 397 510 610
0 0 0 0 0 0 0 0 0 0 0 0 0 0 0 0 0 0 0 0 0 0 0 0 0 0 0 1083 1627 1701 1355 1745 1624 1972 1892 2004 1807 1693 1453 1377 1238 894 1068 576 717 614 404 575 497
0 0 0 0 0 0 0 0 0 0 0 0 0 0 0 0 0 0 0 0 0 0 0 0 0 0 0 0 45 1520 1866 1600 1724 1867 2273 2135 1909 1871 1467 1311 1279 885 1002 620 830 673 690 518 738
0 0 0 0 0 0 0 0 0 0 0 0 0 0 0 0 0 0 0 0 0 0 0 0 0 0 0 0 0 0 1552 1834 1838 1851 2089 2476 2092 2024 1847 1484 1385 1144 766 764 733 693 750 481 757
0 0 0 0 0 0 0 0 0 0 0 0 0 0 0 0 0 0 0 0 0 0 0 0 0 0 0 0 0 0 0 1477 1854 1949 2017 2020 2276 2020 2186 1625 1376 1086 931 953 703 723 634 545 509
0 0 0 0 0 0 0 0 0 0 0 0 0 0 0 0 0 0 0 0 0 0 0 0 0 0 0 0 0 0 0 0 1663 1897 2025 2054 1939 2076 2341 1702 1457 1037 1139 920 965 587 824 472 411
0 0 0 0 0 0 0 0 0 0 0 0 0 0 0 0 0 0 0 0 0 0 0 0 0 0 0 0 0 0 0 0 0 1758 1872 2094 1909 1973 2251 1898 1598 1164 1224 1097 912 775 809 666 492
0 0 0 0 0 0 0 0 0 0 0 0 0 0 0 0 0 0 0 0 0 0 0 0 0 0 0 0 0 0 0 0 0 606 1508 1924 2022 1852 2254 2133 1612 1283 1166 1199 1100 879 957 908 704
0 0 0 0 0 0 0 0 0 0 0 0 0 0 0 0 0 0 0 0 0 0 0 0 0 0 0 0 0 0 0 0 0 0 1035 1319 1933 1891 2175 2060 1611 1434 1159 1223 1249 893 994 756 737
0 0 0 0 0 0 0 0 0 0 0 0 0 0 0 0 0 0 0 0 0 0 0 0 0 0 0 1 1 0 0 0 0 0 426 900 1264 1970 1853 2045 1682 1587 1201 1181 1319 984 910 845 779
0 0 0 0 0 0 0 0 0 0 0 0 0 0 0 0 0 0 0 0 0 0 0 0 0 2 2 3 1 3 3 0 0 0 0 998 946 1266 1212 1683 1683 1606 1282 1254 1379 1165 710 698 873
0 0 0 0 0 0 0 0 0 0 0 0 0 0 0 0 0 0 0 0 0 0 0 0 0 2 2 1 2 4 3 0 0 10 0 105 678 440 1526 1649 1519 1614 1401 1229 1241 1183 882 897 982
0 0 0 0 0 0 0 0 0 0 0 0 0 0 0 0 0 0 0 0 0 0 0 0 1 2 1 1 1 2 4 2 0 29 0 260 613 804 651 1443 1591 1700 1532 1237 1328 1093 881 950 913
0 0 0 0 0 0 0 0 0 0 0 0 0 0 0 0 0 0 0 1 0 1 2 1 1 2 1 1 2 2 3 2 0 20 0 82 537 673 864 941 1397 1722 1614 1235 1320 1119 906 973 1000
0 0 0 0 0 0 0 0 0 0 0 0 0 0 0 0 0 0 0 0 0 1 1 0 1 2 1 1 2 0 2 16 133 21 0 0 821 757 182 181 1041 1601 1698 1392 1206 1188 1011 1245 1072
0 0 0 0 0 0 0 0 0 0 0 0 0 0 0 0 0 0 0 0 0 2 3 0 1 1 1 2 1 0 2 0 84 0 0 0 17 615 349 0 78 1150 1856 1571 1330 1279 893 1208 1244
0 0 0 0 0 0 0 0 0 0 0 0 0 0 0 0 0 0 0 0 0 2 2 0 1 1 1 2 2 2 1 3 115 92 0 0 283 189 286 24 13 0 1006 1404 1375 1597 1224 1024 1282
0 0 0 0 0 0 0 0 0 0 0 0 0 0 0 0 0 0 0 0 0 1 1 1 1 1 1 1 2 2 3 3 2 69 104 91 0 216 103 0 0 44 730 1147 1232 1431 1365 1113 1318
0 0 0 0 0 0 0 0 0 0 0 0 0 0 0 0 0 0 0 0 0 1 1 1 1 1 1 1 2 3 2 3 4 5 0 82 266 165 96 4 42 656 900 979 1105 1153 1101 974 884
CIN
0 0 0 0 0 0 0 0 0 0 0 0 0 0 0 0 0 0 0 -275 -152 -134 -265 -365 -355 -369 -381 -350 -304 -245 -169 -131 -131 -126 -118 -117 -98 -84 -72 -59 -47 -22 -5 -3 -2 -8 -11 -18 -33
0 0 0 0 0 0 0 0 0 0 0 0 0 0 0 0 0 0 0 -251 -143 -123 -183 -261 -361 -346 -373 -350 -292 -228 -157 -115 -108 -110 -102 -98 -90 -73 -64 -49 -39 -20 -6 -5 -8 -9 -12 -25 -28
0 0 0 0 0 0 0 0 0 0 0 0 0 0 0 0 0 0 0 -224 -126 -63 -91 -199 -332 -329 -343 -345 -294 -199 -128 -110 -101 -93 -85 -78 -73 -63 -56 -42 -31 -21 -10 -12 -14 -11 -20 -29 -36
0 0 0 0 0 0 0 0 0 0 0 0 0 0 0 0 0 0 0 -229 -91 -62 -94 -213 -227 -296 -315 -328 -284 -205 -135 -92 -86 -77 -65 -56 -58 -56 -49 -42 -29 -21 -11 -9 -11 -17 -30 -43 -44
0 0 0 0 0 0 0 0 0 0 0 0 0 0 0 0 0 0 0 -233 -121 -32 -130 -220 -254 -292 -303 -312 -289 -246 -162 -99 -68 -59 -55 -41 -43 -52 -52 -41 -37 -16 -18 -14 -10 -27 -44 -50 -49
0 0 0 0 0 0 0 0 0 0 0 0 0 0 0 0 0 0 0 -198 -132 -53 -62 -158 -224 -271 -267 -267 -266 -244 -210 -147 -73 -44 -42 -45 -33 -39 -45 -36 -30 -20 -15 -9 -17 -30 -42 -48 -54
0 0 0 0 0 0 0 0 0 0 0 0 0 0 0 0 0 0 0 -100 -128 -53 -9 -41 -133 -209 -222 -222 -220 -212 -210 -190 -126 -53 -31 -33 -31 -27 -35 -37 -26 -19 -17 -11 -25 -28 -43 -56 -56
0 0 0 0 0 0 0 0 0 0 0 0 0 0 0 0 0 0 0 0 -148 -70 -22 -10 -44 -108 -129 -161 -186 -187 -197 -203 -174 -117 -32 -30 -25 -28 -23 -24 -28 -26 -18 -21 -28 -30 -40 -56 -57
0 0 0 0 0 0 0 0 0 0 0 0 0 0 0 0 0 0 0 0 0 0 -39 -11 -5 -32 -37 -42 -107 -181 -183 -209 -201 -162 -121 -57 -21 -18 -31 -23 -9 -21 -32 -28 -27 -35 -36 -53 -63
0 0 0 0 0 0 0 0 0 0 0 0 0 0 0 0 0 0 0 0 0 0 0 -13 -3 -2 -20 -23 -63 -102 -121 -176 -198 -138 -100 -77 -26 -1 -7 -20 -28 -17 -26 -34 -32 -43 -56 -64 -56
0 0 0 0 0 0 0 0 0 0 0 0 0 0 0 0 0 0 0 0 0 0 0 0 -4 -6 -3 -20 -50 -60 -52 -74 -110 -102 -41 -60 -18 -7 -11 -44 -46 -33 -34 -29 -50 -64 -65 -37 -3
0 0 0 0 0 0 0 0 0 0 0 0 0 0 0 0 0 0 0 0 0 0 0 0 0 0 -7 -4 -24 -69 -83 -65 -60 -95 -104 -17 -34 -23 -17 -41 -31 -25 -23 -15 -25 -44 -37 -12 -7
0 0 0 0 0 0 0 0 0 0 0 0 0 0 0 0 0 0 0 0 0 0 0 0 0 0 0 -55 -9 -6 -45 -48 -71 -27 -89 -68 -44 -41 -37 -17 -33 -37 -8 -46 -9 -16 -33 -7 -10
0 0 0 0 0 0 0 0 0 0 0 0 0 0 0 0 0 0 0 0 0 0 0 0 0 0 0 0 -13 -5 -6 -21 -57 -41 -38 -58 -74 -46 -64 -18 -18 -46 -31 -52 -23 -21 -15 -23 -11
0 0 0 0 0 0 0 0 0 0 0 0 0 0 0 0 0 0 0 0 0 0 0 0 0 0 0 0 0 -11 -6 -7 -7 -54 -47 -19 -57 -44 -26 -31 -10 -20 -44 -34 -38 -22 -13 -24 -8
0 0 0 0 0 0 0 0 0 0 0 0 0 0 0 0 0 0 0 0 0 0 0 0 0 0 0 0 0 0 0 -7 -8 -11 -42 -78 -53 -47 -16 -43 -45 -27 -23 -21 -41 -33 -30 -15 -12
0 0 0 0 0 0 0 0 0 0 0 0 0 0 0 0 0 0 0 0 0 0 0 0 0 0 0 0 0 0 0 0 -2 -6 -9 -56 -110 -58 -5 -50 -68 -77 -25 -39 -50 -58 -22 -30 -18
0 0 0 0 0 0 0 0 0 0 0 0 0 0 0 0 0 0 0 0 0 0 0 0 0 0 0 0 0 0 0 0 0 -4 -6 -12 -91 -116 -34 -32 -54 -80 -43 -40 -56 -71 -36 -19 -21
0 0 0 0 0 0 0 0 0 0 0 0 0 0 0 0 0 0 0 0 0 0 0 0 0 0 0 0 0 0 0 0 0 -63 -3 -3 -30 -102 -82 -28 -48 -82 -74 -56 -76 -79 -45 -20 -21
0 0 0 0 0 0 0 0 0 0 0 0 0 0 0 0 0 0 0 0 0 0 0 0 0 0 0 0 0 0 0 0 0 0 -19 -20 -17 -65 -64 -73 -59 -86 -95 -53 -81 -112 -84 -61 -24
0 0 0 0 0 0 0 0 0 0 0 0 0 0 0 0 0 0 0 0 0 0 0 0 0 0 0 0 0 0 0 0 0 0 -11 -33 -29 -51 -52 -77 -71 -63 -121 -88 -109 -137 -123 -110 -60
0 0 0 0 0 0 0 0 0 0 0 0 0 0 0 0 0 0 0 0 0 0 0 0 0 -0 0 0 0 0 0 0 0 0 0 -18 -41 -3 -113 -37 -91 -57 -106 -91 -95 -120 -164 -138 -94
0 0 0 0 0 0 0 0 0 0 0 0 0 0 0 0 0 0 0 0 0 0 0 0 -0 -0 0 0 0 0 0 0 0 -94 0 -51 -66 -16 -1 -5 -66 -54 -77 -108 -123 -117 -128 -124 -113
0 0 0 0 0 0 0 0 0 0 0 0 0 0 0 0 0 0 0 0 0 0 -0 -0 -0 -0 0 -0 0 0 0 0 0 -245 0 -15 -42 -40 -3 -1 -13 -22 -65 -76 -114 -163 -165 -108 -110
0 0 0 0 0 0 0 0 0 0 0 0 0 0 0 0 0 0 0 -1 0 -0 0 -0 -0 0 0 -0 0 0 0 0 0 -131 0 -44 -21 -61 -73 -11 -3 -2 -72 -102 -87 -138 -171 -113 -121
0 0 0 0 0 0 0 0 0 0 0 0 0 0 0 0 0 0 0 -1 0 -0 -0 0 0 0 0 0 0 0 0 -136 -21 -38 0 0 -7 -40 -140 -16 -5 -1 -30 -63 -49 -98 -140 -88 -104
0 0 0 0 0 0 0 0 0 0 0 0 0 0 0 0 0 0 0 0 0 -0 0 -0 0 0 0 0 0 0 0 0 -17 0 0 0 -85 -29 -55 0 -11 -9 -2 -8 -28 -36 -132 -90 -96
0 0 0 0 0 0 0 0 0 0 0 0 0 0 0 0 0 0 0 0 0 -0 -0 -0 0 0 0 0 0 0 0 0 -161 -24 0 0 -51 -47 -82 -111 -28 0 -10 -3 -13 -3 -50 -93 -83
0 0 0 0 0 0 0 0 0 0 0 0 0 0 0 0 0 0 0 0 0 -0 0 0 0 0 0 0 0 0 0 0 0 -138 -87 -21 0 -21 -135 0 0 -5 -4 -12 -3 -2 -24 -66 -61
0 0 0 0 0 0 0 0 0 0 0 0 0 0 0 0 0 0 0 0 0 0 0 0 0 0 0 0 0 0 0 0 0 0 0 -200 -53 -110 -138 -122 -221 -18 -6 -13 -4 -4 -50 -105 -124
Wind_Speed
24 16 12 19 15 12 17 19 11 12 12 19 22 20 21 20 19 16 25 30 29 19 10 8 7 8 10 12 13 14 14 13 12 12 12 11 10 9 10 11 12 12 13 13 13 12 11 11 11
22 24 14 16 14 19 22 14 14 15 16 21 21 21 17 16 21 20 28 30 25 16 11 9 7 8 9 10 11 13 13 13 12 11 11 10 9 8 9 10 10 11 12 12 12 11 11 11 11
19 20 18 11 6 14 23 15 15 15 16 21 20 20 18 19 23 22 27 28 24 16 11 9 8 8 8 9 10 11 12 12 11 10 10 9 9 8 9 9 9 10 11 11 11 11 11 11 10
17 14 15 16 18 30 19 14 15 16 15 19 21 19 18 18 20 25 27 26 24 18 13 8 8 7 7 8 9 10 11 12 11 10 10 9 8 8 8 8 9 9 10 11 11 11 10 11 10
14 18 19 20 20 23 15 16 17 20 19 23 21 21 20 16 21 26 28 25 24 20 12 9 8 7 6 7 7 9 10 11 10 10 9 9 8 8 7 7 8 8 9 9 10 10 10 10 10
17 16 22 19 16 8 14 15 18 21 21 24 20 22 18 20 27 28 29 23 23 21 12 11 10 7 7 7 7 8 9 10 10 9 8 8 7 7 7 7 8 8 8 9 9 9 9 10 10
16 22 26 30 31 26 16 17 20 21 23 22 21 21 17 27 30 29 28 22 22 19 19 13 12 10 9 9 9 9 9 9 9 9 8 7 7 7 7 7 8 8 8 8 8 9 9 9 9
17 23 28 29 28 24 17 20 22 22 23 27 17 20 24 29 31 30 28 23 22 20 18 18 11 10 10 10 10 9 9 9 8 8 7 6 6 6 6 8 9 7 7 8 7 8 8 9 10
21 21 23 25 26 13 18 21 24 22 23 20 20 19 23 28 30 29 28 27 26 24 20 18 17 11 10 10 9 9 9 8 7 7 5 5 5 4 5 5 8 7 7 6 6 6 8 8 9
13 19 21 21 21 21 23 24 27 24 25 23 15 19 24 28 29 29 29 29 29 27 26 21 17 18 14 14 10 10 9 8 5 4 4 3 2 3 3 3 5 8 8 6 5 5 6 7 5
16 17 25 23 20 24 27 27 26 26 24 24 23 26 28 28 30 29 29 29 30 30 29 28 25 17 18 16 15 14 11 9 7 4 3 3 3 4 3 5 5 7 8 8 6 5 3 7 6
19 21 24 23 22 24 25 26 25 24 24 27 21 23 26 31 30 29 28 29 29 29 29 30 30 28 22 20 19 15 14 11 9 7 5 4 3 5 6 5 4 5 5 5 5 4 2 6 11
20 20 20 22 21 21 24 24 23 23 19 21 22 24 28 28 27 26 27 28 28 29 30 30 31 33 32 28 23 25 19 15 15 12 8 7 6 5 5 7 3 3 2 3 3 3 2 3 4
24 23 24 21 19 19 24 26 21 21 13 19 25 27 27 25 26 27 28 29 31 32 31 33 33 33 36 37 36 28 28 22 18 18 13 11 9 7 6 8 6 3 3 3 2 3 3 1 1
23 26 23 18 15 16 22 25 10 13 16 23 25 26 24 24 26 28 30 32 34 34 35 36 37 39 40 42 40 38 28 28 25 22 21 16 14 11 8 8 11 8 5 4 2 3 3 2 1
22 20 21 24 4 13 17 21 14 14 19 25 26 22 24 25 25 28 31 36 39 40 41 42 43 44 45 46 47 43 40 32 30 27 25 22 19 16 13 11 10 10 8 5 2 3 3 3 2
9 15 14 12 6 12 12 22 23 24 23 24 22 23 24 25 28 32 36 39 41 44 46 48 47 47 48 48 49 49 46 44 35 31 30 28 25 22 20 15 12 9 10 7 5 4 4 4 4
22 11 13 15 14 14 20 28 23 22 23 20 19 21 25 29 32 35 39 43 45 47 49 52 55 53 52 51 51 49 46 47 45 37 34 31 30 27 25 20 15 12 11 9 7 5 5 5 5
19 22 21 18 19 23 26 30 28 22 16 14 18 24 28 31 35 39 42 45 46 49 52 53 56 55 55 55 54 53 50 47 48 46 40 36 35 32 29 27 21 17 15 12 10 8 6 5 5
19 23 24 22 22 25 27 29 27 15 13 14 20 25 30 34 39 42 45 46 48 50 52 55 56 56 55 53 52 52 53 53 47 48 46 45 39 37 33 30 26 22 19 17 13 11 10 8 6
23 23 22 26 28 29 25 21 18 9 9 11 20 26 32 37 40 43 46 48 49 51 53 55 55 55 51 48 48 46 49 48 49 47 50 52 45 43 39 35 31 27 22 21 17 15 13 11 9
22 24 18 23 27 25 21 32 12 6 5 13 23 29 34 38 41 43 45 48 51 51 52 54 53 53 53 50 50 48 50 52 50 51 56 56 56 54 48 40 36 32 27 24 20 18 16 14 12
22 21 22 25 27 27 22 23 18 7 4 16 26 30 34 38 41 43 45 48 50 52 53 54 55 55 52 50 47 49 51 51 52 49 54 64 67 61 44 44 38 37 33 28 24 21 19 16 14
22 25 24 21 22 27 24 15 13 6 14 20 26 30 34 39 41 43 43 46 50 51 52 56 58 51 48 48 49 50 54 53 52 56 44 57 69 55 38 49 38 41 36 32 27 24 23 20 17
20 23 27 22 21 24 18 15 16 11 14 20 26 31 34 39 42 44 46 47 50 52 56 58 55 52 52 52 51 50 51 56 52 59 45 50 62 65 53 48 45 47 40 35 29 26 25 23 19
19 17 23 27 24 22 13 21 15 10 14 21 27 32 37 41 42 43 44 45 50 55 55 58 52 52 53 53 51 48 47 48 46 56 51 47 55 61 63 63 45 45 40 36 31 28 26 24 21
17 22 22 24 26 28 24 21 10 9 18 25 30 34 38 41 41 43 43 43 50 52 53 55 46 49 48 50 47 45 42 39 44 48 49 51 53 52 55 65 35 42 40 37 31 32 27 25 22
21 16 20 19 26 26 24 17 14 16 22 27 31 36 40 41 42 42 44 46 50 50 49 48 44 48 42 39 42 39 36 35 37 45 52 47 52 27 44 53 54 47 49 38 33 34 28 26 24
19 19 19 22 22 25 26 21 15 17 22 27 33 37 39 42 42 42 42 48 49 48 47 44 47 47 45 36 30 30 28 29 29 32 39 41 55 45 39 40 63 56 49 44 40 36 29 27 26
16 18 17 22 23 19 24 25 17 18 23 27 31 35 39 41 41 41 41 49 49 50 47 45 44 43 43 32 22 21 21 21 21 24 27 31 37 38 38 43 39 46 47 43 39 37 31 27 27
Wind_Direction
312 350 10 337 340 343 331 319 356 347 352 339 330 334 332 347 335 337 333 326 321 343 23 33 56 52 53 57 63 65 66 69 64 71 66 63 44 27 19 24 28 46 64 61 67 77 74 67 52
318 285 352 339 338 325 328 352 358 359 341 333 329 328 339 358 344 334 323 323 336 347 20 28 58 52 52 60 57 53 59 65 72 69 71 67 57 43 27 31 31 47 46 55 72 83 80 69 61
320 317 324 352 351 330 316 352 353 358 341 330 326 338 338 338 341 338 333 326 336 351 16 43 46 39 50 50 54 50 49 45 61 67 74 70 67 49 39 29 36 46 46 68 68 73 79 76 73
332 338 328 322 316 276 332 348 346 345 356 339 332 334 352 351 341 337 335 334 326 340 8 39 45 43 33 33 36 38 38 39 47 58 67 75 76 54 28 29 47 54 61 73 63 63 69 83 84
332 319 312 311 313 305 327 335 337 327 332 327 329 325 341 353 347 336 328 340 333 338 4 12 15 23 26 37 38 30 29 36 43 57 64 80 73 62 29 41 46 46 47 73 65 64 78 88 94
316 319 305 312 318 319 334 337 331 325 329 322 328 328 340 346 336 326 326 344 342 326 360 358 353 352 355 2 11 16 19 24 30 44 58 79 74 56 32 23 32 44 33 53 61 74 85 96 103
319 304 294 294 290 309 333 333 326 324 322 324 330 322 323 338 332 324 326 342 341 341 323 337 339 335 333 339 345 353 359 7 18 33 40 45 70 59 20 6 10 23 21 31 62 84 92 101 106
317 307 299 294 293 302 324 323 325 323 319 317 334 325 317 327 329 326 327 338 343 337 332 319 325 328 322 325 329 336 343 352 3 22 28 38 35 57 30 348 343 5 10 22 52 84 103 106 117
312 309 305 301 305 324 330 326 324 329 323 330 327 331 328 325 327 327 325 327 331 332 330 325 314 313 316 317 320 321 327 337 347 359 25 30 22 39 42 7 342 349 357 18 47 81 112 114 119
326 310 310 320 315 313 321 321 318 324 321 322 334 344 329 323 324 326 324 322 322 327 323 323 317 306 306 309 311 314 312 314 325 343 3 10 36 21 46 66 358 335 337 353 16 59 110 116 71
316 308 306 319 316 309 308 315 320 317 318 328 322 321 324 322 322 324 324 322 321 320 321 318 318 309 301 299 300 305 302 299 297 296 312 338 340 336 350 356 353 340 327 331 348 5 60 139 109
310 310 307 310 320 313 312 314 316 317 318 319 332 327 326 324 324 325 327 326 324 324 321 317 313 315 304 296 295 293 292 284 286 274 264 290 289 305 318 326 351 339 329 324 337 351 55 134 148
312 311 313 312 316 315 315 315 316 316 324 331 332 329 327 329 329 334 333 331 329 323 323 318 311 303 302 299 292 290 286 280 282 278 259 254 265 275 280 303 309 354 323 326 314 344 20 111 117
313 309 308 312 314 318 316 313 316 319 331 332 329 328 329 331 333 334 332 328 327 324 323 320 315 312 301 295 293 287 284 278 273 274 268 251 253 263 260 279 289 296 306 328 285 312 340 88 109
309 307 310 307 308 322 325 324 305 344 343 331 330 331 334 334 333 332 331 326 321 322 321 320 314 309 304 297 293 291 280 277 271 265 263 259 249 253 250 264 280 286 290 297 241 299 309 311 182
311 312 314 320 317 331 337 326 0 347 335 328 329 333 336 335 337 336 334 329 324 320 318 315 312 307 301 294 289 286 283 275 267 263 259 251 249 245 255 258 263 273 277 285 271 295 266 283 241
322 319 317 325 354 338 340 321 324 326 332 329 332 336 337 339 336 335 332 328 324 321 317 313 312 307 303 298 291 285 279 277 271 260 256 250 245 244 257 251 252 242 269 257 272 257 258 268 262
313 299 325 318 334 327 327 319 325 327 328 334 339 341 339 335 334 335 332 327 325 320 317 312 308 307 303 298 293 288 280 275 273 267 253 248 243 237 246 249 248 235 253 254 255 246 250 257 261
318 311 311 320 325 319 318 316 319 326 336 339 341 340 338 337 333 331 329 327 326 324 320 318 312 309 306 300 292 286 283 274 269 267 264 246 242 238 235 247 241 234 241 244 238 245 229 255 233
315 311 307 313 318 321 319 317 319 331 336 340 340 339 338 334 330 330 329 330 330 327 325 321 316 313 310 304 296 288 282 278 269 265 260 260 237 234 232 233 235 230 235 236 227 227 245 250 218
306 307 309 312 314 317 316 315 314 334 338 351 348 343 338 335 334 331 331 333 333 331 329 326 323 320 316 309 302 293 285 279 269 261 258 253 251 232 230 228 233 232 226 231 224 225 225 236 234
307 315 315 316 318 319 330 317 321 300 323 345 342 341 337 337 337 335 335 336 336 334 332 329 326 322 313 308 300 292 283 275 272 261 256 251 248 234 214 221 226 231 228 228 226 227 230 230 235
311 316 313 314 314 315 313 314 319 255 295 339 339 340 340 340 339 338 338 338 337 335 334 332 326 320 316 309 304 294 285 275 270 269 255 249 247 253 225 225 218 229 229 227 222 224 230 231 241
310 311 311 312 312 311 310 296 320 308 323 332 338 340 340 341 341 340 341 340 339 340 336 331 322 329 325 316 309 297 283 277 267 260 261 249 244 244 245 229 222 229 229 230 223 221 227 235 241
304 307 310 309 308 316 333 327 312 330 336 335 339 339 342 342 341 342 343 343 343 341 334 330 334 331 325 320 312 300 287 276 259 254 255 256 244 243 243 237 225 227 225 228 229 224 227 231 236
296 290 302 311 310 316 328 322 328 355 350 349 345 343 341 342 344 346 347 346 346 339 337 339 340 333 330 324 314 306 292 279 257 249 251 252 247 240 237 246 226 222 227 231 231 231 231 231 236
294 295 309 306 304 308 304 311 341 342 339 340 341 342 343 344 347 347 349 351 345 344 343 345 346 342 342 327 316 311 297 281 258 249 251 254 253 238 240 235 233 224 228 230 231 237 230 232 235
290 309 306 306 308 303 309 307 318 324 330 338 341 341 344 346 348 350 352 349 343 347 350 354 350 344 353 314 320 311 298 284 273 255 248 257 255 242 238 241 235 244 233 233 232 237 234 234 237
280 286 299 305 303 307 308 312 328 327 332 337 339 342 344 346 349 352 355 345 342 350 357 358 337 333 329 319 314 310 301 292 281 263 254 255 235 250 235 234 224 225 230 234 236 236 237 237 242
284 286 284 298 303 298 307 305 337 337 337 342 341 342 343 348 351 354 357 339 339 345 356 0 327 329 333 321 317 315 305 297 291 274 267 273 249 246 243 239 234 232 232 236 237 237 239 238 241